GSAT 18

导读

GSAT 18是印度空间研究组织研制的地球同步轨道通信卫星,属于印度GSAT系列通信卫星,于2016年10月5日发射,发射质量3404千克,设计寿命15年,基于I-3k卫星平台研制。卫星主要为印度全境提供电视转播、语音通信、多媒体传输、网络数据及宽带通信服务,是印度静止轨道通信卫星网络的重要组成部分,至今仍在轨执行通信任务。

基本信息
目录编号:
41793
目录名称:
GSAT 18
国际标识:
2016-060A
轨道中心:
EARTH
卫星名称:
GSAT 18
卫星全名:
--
卫星状态:
在轨 (已飞行3546 天)
发射日期:
2016-10-05 UTC
国别 :
印度 (IN)
星等 :
--
轨道信息
数据来源 国际轨道数据 AOE轨道数据
星历时间 2026-06-20T17:45:36+0800
19小时前
查看轨道信息
2026-06-21T08:00:00+0800
5小时前
查看轨道信息
半长轴 42164.868km 42164.812km
偏心率 0.0005591 0.0005686
轨道倾角 0.067° 0.069°
近地点辐角 339.048° 339.982°
升交点赤经 95.414° 95.337°
平近点角 54.528° 267.854°
近地点 35763.156km 35762.7km
远地点 35810.306km 35810.65km
周期 1436.104分钟 1436.101分钟
每日圈数 1.002713 1.002715
详细信息
使用方式:
暂无
2D轨道图
3D轨道图
轨道高度分析图
轨道倾角分析图
轨道综合分析图
查看轨道综合分析图